CW4740 Weather Reports


Display with metric or nautical units.
time (UTC)temp
F
wind
direction
speed
MPH
gust
MPH
rain 1hr
in
rain 24hr
in
rain mn
in
humidity
%
barometer
mb
20260508165657 86 70 4.0 9.0 0.00 0.00 0.00 70 1015.7
20260508165153 86 59 5.0 9.0 0.00 0.00 0.00 70 1015.7
20260508164631 86 58 5.0 10.0 0.00 0.00 0.00 72 1015.9
20260508164129 86 99 5.0 11.0 0.00 0.00 0.00 72 1015.9
20260508163706 86 92 6.0 11.0 0.00 0.00 0.00 71 1016.0
20260508163204 86 68 3.0 13.0 0.00 0.00 0.00 73 1016.1
20260508162640 86 36 3.0 13.0 0.00 0.00 0.00 73 1016.0
20260508162139 86 77 5.0 11.0 0.00 0.00 0.00 73 1016.0
20260508161717 86 77 6.0 10.0 0.00 0.00 0.00 74 1016.0
20260508161153 86 83 6.0 10.0 0.00 0.00 0.00 72 1016.1
20260508160630 86 130 5.0 11.0 0.00 0.00 0.00 72 1016.2
20260508160229 86 75 6.0 13.0 0.00 0.00 0.00 71 1016.1
20260508160147 86 75 6.0 13.0 0.00 0.00 0.00 71 1016.1
20260508155637 87 125 5.0 13.0 0.00 0.00 0.00 71 1016.3
20260508155135 87 83 4.0 11.0 0.00 0.00 0.00 72 1016.3
20260508154633 87 74 6.0 10.0 0.00 0.00 0.00 71 1016.2
20260508154151 87 74 5.0 9.0 0.00 0.00 0.00 71 1016.3
20260508153647 87 88 5.0 9.0 0.00 0.00 0.00 71 1016.5
20260508153243 87 355 3.0 9.0 0.00 0.00 0.00 70 1016.5
20260508152637 86 89 4.0 10.0 0.00 0.00 0.00 69 1016.4
20260508152135 86 13 2.0 10.0 0.00 0.00 0.00 62 1016.4
20260508151633 86 355 4.0 8.0 0.00 0.00 0.00 63 1016.5
20260508151150 86 39 4.0 8.0 0.00 0.00 0.00 62 1016.4
20260508150707 86 344 3.0 8.0 0.00 0.00 0.00 67 1016.4
20260508150204 85 9 4.0 8.0 0.00 0.00 0.00 67 1016.4
20260508145632 85 336 2.0 8.0 0.00 0.00 0.00 67 1016.3
20260508145250 85 333 4.0 8.0 0.00 0.00 0.00 66 1016.3
20260508144704 85 355 2.0 6.0 0.00 0.00 0.00 69 1016.3
20260508144141 85 314 2.0 8.0 0.00 0.00 0.00 69 1016.2
20260508143639 84 332 4.0 10.0 0.00 0.00 0.00 69 1016.2
20260508143157 84 360 4.0 10.0 0.00 0.00 0.00 69 1016.3
20260508142634 84 5 6.0 11.0 0.00 0.00 0.00 69 1016.2
20260508142211 84 302 5.0 11.0 0.00 0.00 0.00 70 1016.2
20260508141726 84 336 4.0 8.0 0.00 0.00 0.00 70 1016.2
20260508141141 84 5 3.0 9.0 0.00 0.00 0.00 71 1016.1
20260508140635 83 351 5.0 10.0 0.00 0.00 0.00 70 1016.1
20260508140211 83 9 5.0 11.0 0.00 0.00 0.00 70 1016.1
20260508140129 83 9 5.0 11.0 0.00 0.00 0.00 70 1016.1
20260508135637 83 24 7.0 11.0 0.00 0.00 0.00 70 1016.2
20260508135135 83 323 5.0 10.0 0.00 0.00 0.00 71 1016.1
20260508134712 83 360 5.0 10.0 0.00 0.00 0.00 71 1016.1
20260508134227 83 15 4.0 10.0 0.00 0.00 0.00 71 1016.0
20260508133718 82 341 4.0 8.0 0.00 0.00 0.00 72 1016.0
20260508133234 82 321 4.0 9.0 0.00 0.00 0.00 73 1016.1
20260508132648 82 341 3.0 9.0 0.00 0.00 0.00 74 1016.0
20260508132145 82 5 5.0 9.0 0.00 0.00 0.00 73 1016.1
20260508131704 81 339 4.0 9.0 0.00 0.00 0.00 75 1016.0
20260508131200 81 349 4.0 9.0 0.00 0.00 0.00 75 1016.0
20260508130718 81 331 4.0 6.0 0.00 0.00 0.00 75 1015.9
20260508130153 80 19 4.0 6.0 0.00 0.00 0.00 75 1015.8
20260508125638 80 346 3.0 6.0 0.00 0.00 0.00 76 1015.8
20260508125156 80 347 4.0 9.0 0.00 0.00 0.00 76 1015.8
20260508124652 79 330 5.0 9.0 0.00 0.00 0.00 76 1015.7
20260508124128 79 337 3.0 8.0 0.00 0.00 0.00 77 1015.8
20260508123643 79 321 2.0 9.0 0.00 0.00 0.00 77 1015.8
20260508123218 78 345 5.0 9.0 0.00 0.00 0.00 77 1015.8
20260508122653 78 319 2.0 8.0 0.00 0.00 0.00 78 1015.8
20260508122249 78 332 4.0 6.0 0.00 0.00 0.00 78 1015.8
20260508121724 77 308 3.0 6.0 0.00 0.00 0.00 78 1015.7
20260508121159 77 312 3.0 6.0 0.00 0.00 0.00 78 1015.6
20260508120636 77 334 2.0 5.0 0.00 0.00 0.00 78 1015.5
20260508120134 76 337 3.0 6.0 0.00 0.00 0.00 78 1015.5
20260508115704 76 322 2.0 6.0 0.00 0.00 0.00 78 1015.4
20260508115221 76 347 2.0 6.0 0.00 0.00 0.00 78 1015.3
20260508114737 75 341 3.0 6.0 0.00 0.00 0.00 79 1015.3
20260508114655 75 341 3.0 6.0 0.00 0.00 0.00 79 1015.3
20260508114133 75 154 2.0 7.0 0.00 0.00 0.00 79 1015.3
20260508113710 75 154 2.0 7.0 0.00 0.00 0.00 80 1015.3
20260508113205 75 154 1.0 7.0 0.00 0.00 0.00 80 1015.3
20260508112700 74 154 3.0 5.0 0.00 0.00 0.00 81 1015.2
20260508112136 74 154 1.0 5.0 0.00 0.00 0.00 81 1015.2
20260508111654 74 154 1.0 4.0 0.00 0.00 0.00 82 1015.0
20260508111151 74 154 0.0 0.0 0.00 0.00 0.00 82 1014.9
20260508110707 73 154 0.0 0.0 0.00 0.00 0.00 82 1014.9
20260508110145 73 154 0.0 0.0 0.00 0.00 0.00 82 1014.9
20260508105634 73 154 0.0 0.0 0.00 0.00 0.00 82 1014.8
20260508105153 73 154 0.0 0.0 0.00 0.00 0.00 81 1014.6
20260508104650 73 154 0.0 3.0 0.00 0.00 0.00 82 1014.6
20260508104147 74 154 0.0 5.0 0.00 0.00 0.00 82 1014.5
20260508103646 74 154 1.0 5.0 0.00 0.00 0.00 82 1014.6
20260508103203 74 154 0.0 5.0 0.00 0.00 0.00 82 1014.5
20260508102640 74 154 1.0 5.0 0.00 0.00 0.00 82 1014.4
20260508102136 74 154 1.0 6.0 0.00 0.00 0.00 82 1014.3
20260508101653 74 154 1.0 5.0 0.00 0.00 0.00 82 1014.2
20260508101207 74 154 1.0 5.0 0.00 0.00 0.00 82 1014.2
20260508100641 74 154 1.0 4.0 0.00 0.00 0.00 82 1014.2
20260508100157 74 154 0.0 5.0 0.00 0.00 0.00 82 1014.2
20260508095741 74 154 1.0 5.0 0.00 0.00 0.00 82 1014.1
20260508095659 74 154 1.0 5.0 0.00 0.00 0.00 82 1014.1
20260508095139 74 154 1.0 5.0 0.00 0.00 0.00 82 1014.2
20260508094733 74 154 1.0 4.0 0.00 0.00 0.00 83 1014.0
20260508094650 74 154 1.0 4.0 0.00 0.00 0.00 83 1014.0
20260508094146 74 154 0.0 2.0 0.00 0.00 0.00 83 1014.2
20260508093642 74 154 0.0 1.0 0.00 0.00 0.00 83 1014.1
20260508093159 74 154 0.0 1.0 0.00 0.00 0.00 83 1014.1
20260508092735 75 154 0.0 1.0 0.00 0.00 0.00 83 1014.1
20260508092128 75 154 0.0 2.0 0.00 0.00 0.00 83 1014.0
20260508091646 75 154 0.0 2.0 0.00 0.00 0.00 83 1014.1
20260508091204 75 154 0.0 1.0 0.00 0.00 0.00 83 1014.1
20260508090701 75 154 0.0 2.0 0.00 0.00 0.00 83 1014.1
20260508090139 75 154 0.0 2.0 0.00 0.00 0.00 83 1014.1
20260508085708 75 154 0.0 1.0 0.00 0.00 0.00 83 1014.1
20260508085205 75 154 0.0 1.0 0.00 0.00 0.00 83 1014.1
20260508084702 75 154 0.0 3.0 0.00 0.00 0.00 83 1014.1
20260508084218 76 154 0.0 3.0 0.00 0.00 0.00 83 1014.1
20260508083713 76 154 1.0 3.0 0.00 0.00 0.00 84 1014.1
20260508083631 76 154 1.0 3.0 0.00 0.00 0.00 84 1014.1
20260508083229 76 154 1.0 2.0 0.00 0.00 0.00 84 1014.0
20260508082643 76 154 1.0 2.0 0.00 0.00 0.00 85 1014.0
20260508082220 76 154 0.0 2.0 0.00 0.00 0.00 86 1014.0
20260508081715 76 154 0.0 2.0 0.00 0.00 0.00 86 1014.0
20260508081208 76 154 0.0 1.0 0.00 0.00 0.00 87 1014.0
20260508080644 76 154 0.0 1.0 0.00 0.00 0.00 87 1014.0
20260508080221 76 154 0.0 0.0 0.00 0.00 0.00 88 1014.1
20260508075727 76 154 0.0 0.0 0.00 0.00 0.00 88 1014.0
20260508075143 76 154 0.0 0.0 0.00 0.00 0.00 88 1014.0
20260508074642 76 154 0.0 0.0 0.00 0.00 0.00 88 1014.1
20260508074220 77 154 0.0 0.0 0.00 0.00 0.00 88 1014.1
20260508073715 77 154 0.0 0.0 0.00 0.00 0.00 88 1014.1
20260508073633 77 154 0.0 0.0 0.00 0.00 0.00 88 1014.1
20260508073246 77 154 0.0 0.0 0.00 0.00 0.00 88 1014.1
20260508072641 77 154 0.0 1.0 0.00 0.00 0.00 88 1014.1
20260508072200 77 154 0.0 2.0 0.00 0.00 0.00 88 1014.2
20260508071657 77 154 0.0 3.0 0.00 0.00 0.00 88 1014.2
20260508071137 77 154 1.0 3.0 0.00 0.00 0.00 88 1014.1
20260508070750 77 154 0.0 0.0 0.00 0.00 0.00 88 1014.1
20260508070244 77 154 0.0 0.0 0.00 0.00 0.00 88 1014.0
20260508070202 77 154 0.0 0.0 0.00 0.00 0.00 88 1014.0
20260508065647 77 154 0.0 0.0 0.00 0.00 0.00 87 1014.2
20260508065224 77 154 0.0 0.0 0.00 0.00 0.00 87 1014.2
20260508064737 77 154 0.0 0.0 0.00 0.00 0.00 87 1014.2
20260508064210 78 154 0.0 0.0 0.00 0.00 0.00 87 1014.3
20260508063728 78 154 0.0 0.0 0.00 0.00 0.00 87 1014.3
20260508063645 78 154 0.0 0.0 0.00 0.00 0.00 87 1014.3
20260508063202 78 154 0.0 0.0 0.00 0.00 0.00 87 1014.3
20260508062659 78 154 0.0 0.0 0.00 0.00 0.00 86 1014.5
20260508062136 78 154 0.0 0.0 0.00 0.00 0.00 86 1014.5
20260508061733 78 154 0.0 0.0 0.00 0.00 0.00 86 1014.5
20260508061630 78 154 0.0 0.0 0.00 0.00 0.00 86 1014.5
20260508061128 78 154 0.0 0.0 0.00 0.00 0.00 86 1014.4
20260508060646 78 154 0.0 0.0 0.00 0.00 0.00 85 1014.4
20260508060225 79 154 0.0 0.0 0.00 0.00 0.00 85 1014.4
20260508055632 79 154 0.0 0.0 0.00 0.00 0.00 84 1014.4
20260508055210 79 154 0.0 0.0 0.00 0.00 0.00 84 1014.5
20260508054742 79 154 0.0 0.0 0.00 0.00 0.00 84 1014.7
20260508054700 79 154 0.0 0.0 0.00 0.00 0.00 84 1014.7
20260508054237 79 154 0.0 0.0 0.00 0.00 0.00 84 1014.6
20260508054134 79 154 0.0 0.0 0.00 0.00 0.00 84 1014.6
20260508053652 79 154 0.0 0.0 0.00 0.00 0.00 83 1014.7
20260508053229 79 154 0.0 2.0 0.00 0.00 0.00 83 1014.7
20260508053146 79 154 0.0 2.0 0.00 0.00 0.00 83 1014.7
20260508052704 79 154 0.0 2.0 0.00 0.00 0.00 83 1014.8
20260508052241 80 154 0.0 2.0 0.00 0.00 0.00 83 1014.9
20260508051656 80 154 0.0 2.0 0.00 0.00 0.00 83 1014.8
20260508051232 80 154 0.0 2.0 0.00 0.00 0.00 83 1014.9
20260508051150 80 154 0.0 2.0 0.00 0.00 0.00 83 1014.9
20260508050646 80 154 0.0 2.0 0.00 0.00 0.00 83 1014.8
20260508050142 80 154 1.0 2.0 0.00 0.00 0.00 83 1014.8
20260508045629 80 154 0.0 6.0 0.00 0.00 0.00 82 1014.8
20260508045146 80 154 1.0 3.0 0.00 0.00 0.00 82 1014.9
20260508044645 80 154 1.0 3.0 0.00 0.00 0.00 82 1014.8
20260508044143 80 154 1.0 5.0 0.00 0.00 0.00 83 1014.8
20260508043642 80 154 2.0 6.0 0.00 0.00 0.00 82 1014.9
20260508043221 80 154 2.0 6.0 0.00 0.00 0.00 82 1014.9
20260508042714 81 154 1.0 6.0 0.00 0.00 0.00 82 1014.9
20260508042141 80 154 1.0 5.0 0.00 0.00 0.00 82 1015.0
20260508041641 81 154 2.0 5.0 0.00 0.00 0.00 82 1015.0
20260508041137 81 154 0.0 6.0 0.00 0.00 0.00 81 1014.9
20260508040634 81 154 2.0 6.0 0.00 0.00 0.00 81 1014.9
20260508040131 81 154 0.0 6.0 0.00 0.00 0.00 81 1014.9
20260508035718 81 154 2.0 7.0 0.00 0.00 0.00 81 1015.0
20260508035229 81 154 2.0 7.0 0.00 0.00 0.00 80 1015.1
20260508034725 81 153 1.0 6.0 0.00 0.00 0.00 80 1015.0
20260508034200 81 152 2.0 7.0 0.00 0.00 0.00 80 1015.1
20260508033655 81 152 2.0 7.0 0.00 0.00 0.00 80 1015.1
20260508033233 81 152 3.0 9.0 0.00 0.00 0.00 80 1015.0
20260508032706 81 153 3.0 9.0 0.00 0.00 0.00 79 1015.0
20260508032142 81 152 2.0 7.0 0.00 0.00 0.00 80 1015.1
20260508031641 81 152 2.0 7.0 0.00 0.00 0.00 79 1015.1
20260508031139 81 151 3.0 8.0 0.00 0.00 0.00 79 1015.0
20260508030737 81 153 3.0 8.0 0.00 0.00 0.00 79 1015.0
20260508030133 81 152 3.0 8.0 0.00 0.00 0.00 79 1014.9
20260508025642 81 151 3.0 8.0 0.00 0.00 0.00 80 1014.9
20260508025200 81 151 3.0 8.0 0.00 0.00 0.00 79 1014.9
20260508024635 81 151 3.0 7.0 0.00 0.00 0.00 79 1015.0
20260508024133 81 151 3.0 7.0 0.00 0.00 0.00 79 1015.0
20260508023631 81 151 3.0 8.0 0.00 0.00 0.00 79 1015.0
20260508023149 81 151 3.0 8.0 0.00 0.00 0.00 79 1015.0
20260508022647 82 151 2.0 8.0 0.00 0.00 0.00 79 1014.9
20260508022204 82 151 3.0 8.0 0.00 0.00 0.00 78 1014.9
20260508021718 82 151 4.0 7.0 0.00 0.00 0.00 78 1014.9
20260508021636 82 151 4.0 7.0 0.00 0.00 0.00 78 1014.9
20260508021132 81 151 2.0 6.0 0.00 0.00 0.00 78 1014.9
20260508020647 81 151 2.0 8.0 0.00 0.00 0.00 77 1015.0
20260508020223 81 150 3.0 8.0 0.00 0.00 0.00 77 1015.0
20260508015708 81 150 3.0 7.0 0.00 0.00 0.00 77 1014.9
20260508015204 82 146 2.0 9.0 0.00 0.00 0.00 76 1014.9
20260508014641 82 145 4.0 9.0 0.00 0.00 0.00 76 1014.9
20260508014139 82 142 3.0 7.0 0.00 0.00 0.00 76 1014.9
20260508013637 82 141 2.0 7.0 0.00 0.00 0.00 75 1015.0
20260508013135 82 149 3.0 6.0 0.00 0.00 0.00 75 1015.0
20260508012714 82 155 2.0 7.0 0.00 0.00 0.00 74 1014.9
20260508012210 82 143 2.0 7.0 0.00 0.00 0.00 74 1014.9
20260508011646 82 138 3.0 7.0 0.00 0.00 0.00 73 1015.0
20260508011201 82 131 1.0 5.0 0.00 0.00 0.00 73 1015.0
20260508010736 82 131 2.0 5.0 0.00 0.00 0.00 73 1014.9
20260508010150 82 128 2.0 7.0 0.00 0.00 0.00 73 1015.0
20260508005635 82 128 2.0 7.0 0.00 0.00 0.00 72 1014.9
20260508005132 82 128 3.0 7.0 0.00 0.00 0.00 72 1014.9
20260508004628 82 163 3.0 5.0 0.00 0.00 0.00 72 1014.9
20260508004245 82 151 1.0 7.0 0.00 0.00 0.00 71 1014.8
20260508003739 82 134 2.0 8.0 0.00 0.00 0.00 71 1014.8
20260508003153 82 153 3.0 9.0 0.00 0.00 0.00 71 1014.7
20260508002649 83 130 5.0 9.0 0.00 0.00 0.00 71 1014.7
20260508002242 83 161 2.0 7.0 0.00 0.00 0.00 71 1014.7
20260508001736 83 143 2.0 7.0 0.00 0.00 0.00 70 1014.8
20260508001654 83 143 2.0 7.0 0.00 0.00 0.00 70 1014.8
20260508001130 83 130 1.0 9.0 0.00 0.00 0.00 70 1014.7
20260508000728 83 171 3.0 9.0 0.00 0.00 0.00 70 1014.6
20260508000205 83 145 4.0 9.0 0.00 0.00 0.00 70 1014.4
20260507235713 83 192 4.0 9.0 0.00 0.00 0.00 69 1014.3
20260507235630 83 192 4.0 9.0 0.00 0.00 0.00 69 1014.3
20260507235229 83 157 3.0 10.0 0.00 0.00 0.00 69 1014.3
20260507235147 83 157 3.0 10.0 0.00 0.00 0.00 69 1014.3
20260507234645 83 135 3.0 10.0 0.00 0.00 0.00 69 1014.1
20260507234142 83 137 4.0 8.0 0.00 0.00 0.00 69 1014.1
20260507233720 83 190 5.0 14.0 0.00 0.00 0.00 69 1014.1
20260507233638 83 190 5.0 14.0 0.00 0.00 0.00 69 1014.1
20260507233214 83 122 7.0 15.0 0.00 0.00 0.00 69 1014.1
20260507232631 83 170 6.0 11.0 0.00 0.00 0.00 70 1014.1
20260507232130 84 115 7.0 12.0 0.00 0.00 0.00 70 1014.2
20260507231727 84 201 4.0 13.0 0.00 0.00 0.00 70 1014.1
20260507231202 84 126 5.0 13.0 0.00 0.00 0.00 70 1014.1
20260507230655 84 170 5.0 12.0 0.00 0.00 0.00 69 1014.1
20260507230211 84 148 7.0 12.0 0.00 0.00 0.00 69 1014.2
20260507225716 84 121 4.0 13.0 0.00 0.00 0.00 70 1014.2
20260507225130 84 125 7.0 13.0 0.00 0.00 0.00 70 1014.1
20260507224703 84 113 6.0 14.0 0.00 0.00 0.00 70 1014.0
20260507224144 84 122 8.0 14.0 0.00 0.00 0.00 69 1014.0
20260507223718 84 139 5.0 14.0 0.00 0.00 0.00 70 1014.0
20260507223138 84 142 8.0 16.0 0.00 0.00 0.00 70 1014.0
20260507222655 85 150 8.0 16.0 0.00 0.00 0.00 69 1014.0
20260507222210 85 200 9.0 14.0 0.00 0.00 0.00 68 1013.8
20260507222128 85 200 9.0 14.0 0.00 0.00 0.00 68 1013.8
20260507221705 85 156 5.0 13.0 0.00 0.00 0.00 68 1013.8
20260507221221 86 160 7.0 14.0 0.00 0.00 0.00 67 1013.9
20260507220657 86 89 5.0 14.0 0.00 0.00 0.00 68 1013.9
20260507220213 86 130 5.0 10.0 0.00 0.00 0.00 68 1013.9
20260507215639 86 145 4.0 12.0 0.00 0.00 0.00 68 1013.8
20260507215215 86 105 7.0 13.0 0.00 0.00 0.00 68 1013.9
20260507214631 85 146 7.0 13.0 0.00 0.00 0.00 67 1013.9
20260507214128 85 120 7.0 13.0 0.00 0.00 0.00 67 1013.8
20260507213726 86 136 7.0 12.0 0.00 0.00 0.00 67 1013.8
20260507213201 86 126 6.0 12.0 0.00 0.00 0.00 67 1013.8
20260507212638 86 144 6.0 12.0 0.00 0.00 0.00 68 1013.9
20260507212135 86 117 6.0 12.0 0.00 0.00 0.00 68 1014.0
20260507211733 86 123 7.0 14.0 0.00 0.00 0.00 68 1014.0
20260507211651 86 123 7.0 14.0 0.00 0.00 0.00 68 1014.0
20260507211205 86 96 8.0 14.0 0.00 0.00 0.00 67 1014.0
20260507210740 86 138 8.0 14.0 0.00 0.00 0.00 65 1014.1
20260507210636 86 138 8.0 14.0 0.00 0.00 0.00 65 1014.1
20260507210134 86 146 5.0 12.0 0.00 0.00 0.00 67 1014.1
20260507205644 86 130 7.0 13.0 0.00 0.00 0.00 65 1014.0
20260507205142 86 113 8.0 13.0 0.00 0.00 0.00 65 1013.9
20260507204639 86 111 7.0 13.0 0.00 0.00 0.00 65 1014.0
20260507204217 86 127 6.0 13.0 0.00 0.00 0.00 64 1014.0
20260507203632 87 105 5.0 12.0 0.00 0.00 0.00 65 1014.1
20260507203151 86 120 7.0 12.0 0.00 0.00 0.00 66 1014.2
20260507202728 86 139 7.0 13.0 0.00 0.00 0.00 64 1014.1
20260507202143 87 130 7.0 12.0 0.00 0.00 0.00 66 1014.3
20260507201720 87 103 7.0 12.0 0.00 0.00 0.00 67 1014.3
20260507201235 87 109 7.0 12.0 0.00 0.00 0.00 67 1014.3
20260507201132 87 109 7.0 12.0 0.00 0.00 0.00 67 1014.3
20260507200647 87 113 6.0 12.0 0.00 0.00 0.00 66 1014.4
20260507200144 87 109 5.0 12.0 0.00 0.00 0.00 66 1014.5
20260507195632 87 142 8.0 12.0 0.00 0.00 0.00 67 1014.6
20260507195129 87 136 6.0 11.0 0.00 0.00 0.00 67 1014.6
20260507194646 87 122 6.0 10.0 0.00 0.00 0.00 67 1014.7
20260507194143 87 93 7.0 11.0 0.00 0.00 0.00 65 1014.7
20260507193641 87 120 6.0 11.0 0.00 0.00 0.00 65 1014.7
20260507193139 87 138 6.0 10.0 0.00 0.00 0.00 66 1014.7
20260507192717 87 106 5.0 12.0 0.00 0.00 0.00 67 1014.8
20260507192214 87 119 7.0 12.0 0.00 0.00 0.00 66 1014.8
20260507191630 87 146 7.0 12.0 0.00 0.00 0.00 68 1014.9
20260507191129 87 124 7.0 11.0 0.00 0.00 0.00 66 1015.0
20260507190706 87 100 7.0 11.0 0.00 0.00 0.00 68 1015.0
20260507190201 87 153 6.0 15.0 0.00 0.00 0.00 68 1015.1
20260507185647 87 91 8.0 15.0 0.00 0.00 0.00 68 1015.2
20260507185144 87 119 7.0 12.0 0.00 0.00 0.00 67 1015.3
20260507184700 87 142 6.0 11.0 0.00 0.00 0.00 67 1015.4
20260507184155 87 134 6.0 12.0 0.00 0.00 0.00 68 1015.5
20260507183751 87 124 6.0 12.0 0.00 0.00 0.00 68 1015.5
20260507183647 87 124 6.0 12.0 0.00 0.00 0.00 68 1015.5
20260507183204 87 87 8.0 12.0 0.00 0.00 0.00 69 1015.4
20260507182640 87 126 8.0 11.0 0.00 0.00 0.00 68 1015.4
20260507182157 87 150 6.0 11.0 0.00 0.00 0.00 68 1015.5
20260507181714 87 112 6.0 11.0 0.00 0.00 0.00 69 1015.6
20260507181129 87 89 4.0 11.0 0.00 0.00 0.00 68 1015.6
20260507180726 88 138 6.0 11.0 0.00 0.00 0.00 67 1015.7
20260507180201 87 109 4.0 11.0 0.00 0.00 0.00 69 1015.8
20260507175629 87 145 7.0 11.0 0.00 0.00 0.00 68 1015.9
20260507175207 87 91 4.0 12.0 0.00 0.00 0.00 69 1015.9
20260507174743 87 153 7.0 12.0 0.00 0.00 0.00 69 1015.8
20260507174640 87 153 7.0 12.0 0.00 0.00 0.00 69 1015.8
20260507174213 87 94 7.0 11.0 0.00 0.00 0.00 68 1016.0
20260507174130 87 94 7.0 11.0 0.00 0.00 0.00 68 1016.0
20260507173726 86 117 7.0 11.0 0.00 0.00 0.00 68 1016.1
20260507173142 87 111 4.0 11.0 0.00 0.00 0.00 69 1016.2
20260507172701 86 102 7.0 11.0 0.00 0.00 0.00 70 1016.2
20260507172159 86 119 7.0 11.0 0.00 0.00 0.00 70 1016.2
20260507171636 86 145 6.0 11.0 0.00 0.00 0.00 71 1016.2
20260507171133 86 131 8.0 11.0 0.00 0.00 0.00 70 1016.3
20260507170649 86 133 6.0 11.0 0.00 0.00 0.00 70 1016.2